Other Surface Observations
Issued by NWS Charleston, SC

Home | Current Version | Previous Version | Text Only | Print | Product List | Glossary On
Versions: 1 2 3 4 5 6 7 8 9 10 11 12 13 14 15 16 17 18 19 20 21 22 23 24 25 26 27 28 29 30 31 32 33 34 35 36 37 38 39 40 41 42 43 44 45 46 47 48 49 50
000
SXUS52 KCHS 020027
OSOCHS

MARINE OBSERVATIONS
NATIONAL WEATHER SERVICE CHARLESTON SC
800 PM EDT TUE SEP 01 2015

...DOWNTOWN CHARLESTON AND HARBOR...

CITY           SKY/WX    TMP DP  RH WIND       PRES   REMARKS
WATERFRONT PRK   N/A     82  76  82 S6        30.04S

...LAKE MOULTRIE...

CITY           SKY/WX    TMP DP  RH WIND       PRES   REMARKS
PINOPOLIS        N/A     86  75  70 VRB3      30.00R HX  95

...LAKE AND SUPPLEMENTAL COASTAL OBSERVATIONS...

STATION/POSITION TIME  TEMP    WIND        PRES    WAVE   SWELL
                       AIR SEA DIR/SP/G            HT/PER HT/PER/DIR
                 (UTC) (F)     (DEG/KT/KT) (MB)    (FT/S) (FT/S/D)
FORT PULASKI     0000   80 83  110/  5/  7 1018.4F
SAPELO ISLAND    0000   79        CALM     1018.0S
UPR LAKE MARION  NOT AVBL
WINYAH BAY       2345   81     210/  4     1017.0S
LAKE MURRAY      0000   83        CALM     1017.3R
ACE BASIN NERRS  NOT AVBL


...C-MAN AND BUOY OBSERVATIONS...

STATION/POSITION TIME  TEMP    WIND        PRES    WAVE   SWELL
                       AIR SEA DIR/SP/G            HT/PER HT/PER/DIR
                 (UTC) (F)     (DEG/KT/KT) (MB)    (FT/S) (FT/S/D)
BUOY 41004       2350   82 83  120/  6/  8 1017.9S   2/ 7   2/ 7
BUOY 41008       2350   81 84   90/  6/  8 1017.9F   2/ 8   2/100/ 8
FOLLY BEACH CMAN 0000   82     160/  9/ 10 1018.3S
CAPERS NS BUOY   2308   82     160/ 10/ 14 1018.2R
FRIPP NS BUOY    2300   82     120/ 10/ 12 1017.9F
5E ST. MARYS GA  2321      86                N/A     2/ 9


STATION/POSITION TIME  TEMP    WIND        PRES    WAVE   SWELL
                       AIR SEA DIR/SP/G            HT/PER HT/PER/DIR
                 (UTC) (F)     (DEG/KT/KT) (MB)    (FT/S) (FT/S/D)
FRYING PAN BUOY  2350   81 82  200/  4/  6 1018.2F   2/10   2/140/10
BUOY 41025       2350   80 84   10/  4/  6 1017.5R   2/ 7   2/130/ 7
CAPE LOOKOUT NC  0000   79     220/  6/  7 1017.3R
BUOY 41002       2350   83 85  250/  6/  8 1018.0S   3/ 6   3/190/ 6
BUOY 41010       2320   85 87   CALM  /  2 1018.6R
ST AUGUSTINE FL  0000   83 85  140/  9/ 10 1018.2R

$$



USA.gov is the U.S. government's official web portal to all federal, state and local government web resources and services.